Volver al catálogo

DELTA 1 DEB

YO

ActivoHEO
NORAD 28145·DEBRIS·🇺🇸 United States

Lanzado Mar 10, 1977 desde Cape Canaveral Space Force Station

Loading…

Próximos Pases (próximas 24 horas)

TLE

ActualizadoSource: Space-Track

Época: Sep 14, 2026, 02:02 UTC

1 28145U 77018F   26257.08483032  .00005329  00000-0  12172-2 0  9997
2 28145  24.4512 203.2994 4796460  31.3278 349.9800  5.92930481460070

Sigue DELTA 1 DEB en tiempo real con AllMySat

Download on the App Store